User: anonymous   Login
Location: Fort Wayne
(41.1310°N, 85.1290°W)
Time: 22:52:30
(UTC-04:00)
Language:

Cosmos 2056 Rocket - Orbit

View from above orbital plane
View from above orbital plane
View from above satellite
View from above satellite

Ground track
Ground track

The orbit data is extracted from the following two-line orbital elements,

1 20433U 90004B   15214.21339729  .00000061  00000-0  29576-4 0  9994
2 20433 074.0356 173.5185 0039865 110.4520 349.9261 14.35858406336889
Epoch (UTC): 02 August 2015 05:07:17
Eccentricity: 0.0039865
inclination: 74.0356°
perigee height: 744 km
apogee height: 801 km
right ascension of ascending node: 173.5185°
argument of perigee: 110.4520°
revolutions per day: 14.35858406
mean anomaly at epoch: 349.9261°
orbit number at epoch: 33688

The dashed part of the orbit path shows where the satellite is in the earth's shadow,  

DLR